Time,TemperatureF,DewpointF,PressureIn,WindDirection,WindDirectionDegrees,WindSpeedMPH,WindSpeedGustMPH,Humidity,HourlyPrecipIn,Conditions,Clouds,dailyrainin,SolarRadiationWatts/m^2,SoftwareType,DateUTC
2013-02-04 00:02:00,-12.0,-18.0,-100.00,SSW,201,1.0,2.0,75,0.00,,,0.00,0.000000,,2013-02-04 06:02:00,
2013-02-04 00:10:00,-9.0,-15.0,-100.00,NW,307,0.0,2.0,75,0.00,,,0.00,0.000000,,2013-02-04 06:10:00,
2013-02-04 00:32:00,-9.0,-15.0,-100.00,NW,307,0.0,2.0,75,0.00,,,0.00,0.000000,,2013-02-04 06:32:00,
2013-02-04 00:42:00,-9.0,-15.0,-100.00,NW,307,0.0,2.0,75,0.00,,,0.00,0.000000,,2013-02-04 06:42:00,
2013-02-04 00:52:00,-9.0,-15.0,-100.00,NW,307,0.0,2.0,75,0.00,,,0.00,0.000000,,2013-02-04 06:52:00,
2013-02-04 01:02:00,-9.0,-15.0,-100.00,NW,307,0.0,2.0,75,0.00,,,0.00,0.000000,,2013-02-04 07:02:00,
2013-02-04 01:10:00,-10.0,-16.0,-100.00,NNE,26,0.0,2.0,75,0.00,,,0.00,0.000000,,2013-02-04 07:10:00,
2013-02-04 01:32:00,-10.0,-16.0,-100.00,NNE,26,0.0,2.0,75,0.00,,,0.00,0.000000,,2013-02-04 07:32:00,
2013-02-04 01:42:00,-10.0,-16.0,-100.00,NNE,26,0.0,2.0,75,0.00,,,0.00,0.000000,,2013-02-04 07:42:00,
2013-02-04 01:52:00,-10.0,-16.0,-100.00,NNE,26,0.0,2.0,75,0.00,,,0.00,0.000000,,2013-02-04 07:52:00,
2013-02-04 02:01:00,-10.0,-16.0,-100.00,NNE,26,0.0,2.0,75,0.00,,,0.00,0.000000,,2013-02-04 08:01:00,
2013-02-04 02:10:00,-12.0,-18.0,-100.00,NNW,341,1.0,2.0,73,0.00,,,-99.99,0.000000,,2013-02-04 08:10:00,
2013-02-04 02:42:00,-12.0,-18.0,-100.00,NNW,341,1.0,2.0,73,0.00,,,-99.99,0.000000,,2013-02-04 08:42:00,
2013-02-04 02:52:00,-12.0,-18.0,-100.00,NNW,341,1.0,2.0,73,0.00,,,-99.99,0.000000,,2013-02-04 08:52:00,
2013-02-04 03:02:00,-12.0,-18.0,-100.00,NNW,341,1.0,2.0,73,0.00,,,-99.99,0.000000,,2013-02-04 09:02:00,
2013-02-04 03:10:00,-14.0,-20.0,-100.00,North,357,0.0,2.0,72,0.00,,,0.00,0.000000,,2013-02-04 09:10:00,
2013-02-04 03:42:00,-14.0,-20.0,-100.00,North,357,0.0,2.0,72,0.00,,,0.00,0.000000,,2013-02-04 09:42:00,
2013-02-04 03:52:00,-14.0,-20.0,-100.00,North,357,0.0,2.0,72,0.00,,,0.00,0.000000,,2013-02-04 09:52:00,
2013-02-04 04:01:00,-14.0,-20.0,-100.00,North,357,0.0,2.0,72,0.00,,,0.00,0.000000,,2013-02-04 10:01:00,
2013-02-04 04:10:00,-16.0,-23.0,-100.00,WNW,282,0.0,0.0,70,0.00,,,0.00,0.000000,,2013-02-04 10:10:00,
2013-02-04 04:42:00,-16.0,-23.0,-100.00,WNW,282,0.0,0.0,70,0.00,,,0.00,0.000000,,2013-02-04 10:42:00,
2013-02-04 04:52:00,-16.0,-23.0,-100.00,WNW,282,0.0,0.0,70,0.00,,,0.00,0.000000,,2013-02-04 10:52:00,
2013-02-04 05:02:00,-16.0,-23.0,-100.00,WNW,282,0.0,0.0,70,0.00,,,0.00,0.000000,,2013-02-04 11:02:00,
2013-02-04 05:10:00,-18.0,-25.0,-100.00,North,9,0.0,2.0,70,0.00,,,0.00,0.000000,,2013-02-04 11:10:00,
2013-02-04 05:33:00,-18.0,-25.0,-100.00,North,9,0.0,2.0,70,0.00,,,0.00,0.000000,,2013-02-04 11:33:00,
2013-02-04 05:42:00,-18.0,-25.0,-100.00,North,9,0.0,2.0,70,0.00,,,0.00,0.000000,,2013-02-04 11:42:00,
2013-02-04 05:52:00,-18.0,-25.0,-100.00,North,9,0.0,2.0,70,0.00,,,0.00,0.000000,,2013-02-04 11:52:00,
2013-02-04 06:02:00,-18.0,-25.0,-100.00,North,9,0.0,2.0,70,0.00,,,0.00,0.000000,,2013-02-04 12:02:00,
2013-02-04 06:10:00,-20.0,-27.0,-100.00,North,8,1.0,1.0,68,0.00,,,0.00,0.000000,,2013-02-04 12:10:00,
2013-02-04 06:33:00,-20.0,-27.0,-100.00,North,8,1.0,1.0,68,0.00,,,0.00,0.000000,,2013-02-04 12:33:00,
2013-02-04 06:42:00,-20.0,-27.0,-100.00,North,8,1.0,1.0,68,0.00,,,0.00,0.000000,,2013-02-04 12:42:00,
2013-02-04 06:53:00,-20.0,-27.0,-100.00,North,8,1.0,1.0,68,0.00,,,0.00,0.000000,,2013-02-04 12:53:00,
2013-02-04 07:02:00,-20.0,-27.0,-100.00,North,8,1.0,1.0,68,0.00,,,0.00,0.000000,,2013-02-04 13:02:00,
2013-02-04 07:10:00,-21.0,-29.0,-100.00,North,359,0.0,2.0,66,0.00,,,0.00,0.000000,,2013-02-04 13:10:00,
2013-02-04 07:33:00,-21.0,-29.0,-100.00,North,359,0.0,2.0,66,0.00,,,0.00,0.000000,,2013-02-04 13:33:00,
2013-02-04 07:42:00,-21.0,-29.0,-100.00,North,359,0.0,2.0,66,0.00,,,0.00,0.000000,,2013-02-04 13:42:00,
2013-02-04 07:52:00,-21.0,-29.0,-100.00,North,359,0.0,2.0,66,0.00,,,0.00,0.000000,,2013-02-04 13:52:00,
2013-02-04 08:03:00,-21.0,-29.0,-100.00,North,359,0.0,2.0,66,0.00,,,0.00,0.000000,,2013-02-04 14:03:00,
2013-02-04 08:10:00,-21.0,-29.0,-100.00,SSE,166,1.0,2.0,66,0.00,,,-99.99,9.000000,,2013-02-04 14:10:00,
2013-02-04 08:33:00,-21.0,-29.0,-100.00,SSE,166,1.0,2.0,66,0.00,,,-99.99,9.000000,,2013-02-04 14:33:00,
2013-02-04 08:42:00,-21.0,-29.0,-100.00,SSE,166,1.0,2.0,66,0.00,,,-99.99,9.000000,,2013-02-04 14:42:00,
2013-02-04 08:52:00,-21.0,-29.0,-100.00,SSE,166,1.0,2.0,66,0.00,,,-99.99,9.000000,,2013-02-04 14:52:00,
2013-02-04 09:03:00,-21.0,-29.0,-100.00,SSE,166,1.0,2.0,66,0.00,,,-99.99,9.000000,,2013-02-04 15:03:00,
2013-02-04 09:10:00,-13.0,-20.0,-100.00,South,189,1.0,2.0,68,0.00,,,-99.99,50.000000,,2013-02-04 15:10:00,
2013-02-04 09:33:00,-13.0,-20.0,-100.00,South,189,1.0,2.0,68,0.00,,,-99.99,50.000000,,2013-02-04 15:33:00,
2013-02-04 09:43:00,-13.0,-20.0,-100.00,South,189,1.0,2.0,68,0.00,,,-99.99,50.000000,,2013-02-04 15:43:00,
2013-02-04 09:53:00,-13.0,-20.0,-100.00,South,189,1.0,2.0,68,0.00,,,-99.99,50.000000,,2013-02-04 15:53:00,
2013-02-04 10:03:00,-13.0,-20.0,-100.00,South,189,1.0,2.0,68,0.00,,,-99.99,50.000000,,2013-02-04 16:03:00,
2013-02-04 11:10:00,6.0,-4.0,-100.00,NNW,337,4.0,7.0,64,-99.99,,,0.00,54.000000,,2013-02-04 17:10:00,
2013-02-04 11:42:00,6.0,-4.0,-100.00,NNW,337,4.0,7.0,64,-99.99,,,0.00,54.000000,,2013-02-04 17:42:00,
2013-02-04 11:52:00,6.0,-4.0,-100.00,NNW,337,4.0,7.0,64,-99.99,,,0.00,54.000000,,2013-02-04 17:52:00,
2013-02-04 12:03:00,6.0,-4.0,-100.00,NNW,337,4.0,7.0,64,-99.99,,,0.00,54.000000,,2013-02-04 18:03:00,
2013-02-04 12:10:00,12.0,-4.0,-100.00,WSW,253,4.0,9.0,47,0.00,,,0.00,432.000000,,2013-02-04 18:10:00,
2013-02-04 12:33:00,12.0,-4.0,-100.00,WSW,253,4.0,9.0,47,0.00,,,0.00,432.000000,,2013-02-04 18:33:00,
2013-02-04 12:42:00,12.0,-4.0,-100.00,WSW,253,4.0,9.0,47,0.00,,,0.00,432.000000,,2013-02-04 18:42:00,
2013-02-04 12:52:00,12.0,-4.0,-100.00,WSW,253,4.0,9.0,47,0.00,,,0.00,432.000000,,2013-02-04 18:52:00,
2013-02-04 13:02:00,12.0,-4.0,-100.00,WSW,253,4.0,9.0,47,0.00,,,0.00,432.000000,,2013-02-04 19:02:00,
2013-02-04 13:10:00,14.0,-10.0,-100.00,NNW,328,5.0,10.0,33,0.00,,,0.00,475.000000,,2013-02-04 19:10:00,
2013-02-04 13:42:00,14.0,-10.0,-100.00,NNW,328,5.0,10.0,33,0.00,,,0.00,475.000000,,2013-02-04 19:42:00,
2013-02-04 13:52:00,14.0,-10.0,-100.00,NNW,328,5.0,10.0,33,0.00,,,0.00,475.000000,,2013-02-04 19:52:00,
2013-02-04 14:02:00,14.0,-10.0,-100.00,NNW,328,5.0,10.0,33,0.00,,,0.00,475.000000,,2013-02-04 20:02:00,
2013-02-04 15:10:00,15.0,-11.0,-100.00,NNW,329,6.0,11.0,29,-99.99,,,0.00,313.000000,,2013-02-04 21:10:00,
2013-02-04 15:32:00,15.0,-11.0,-100.00,NNW,329,6.0,11.0,29,-99.99,,,0.00,313.000000,,2013-02-04 21:32:00,
2013-02-04 15:43:00,15.0,-11.0,-100.00,NNW,329,6.0,11.0,29,-99.99,,,0.00,313.000000,,2013-02-04 21:43:00,
2013-02-04 15:52:00,15.0,-11.0,-100.00,NNW,329,6.0,11.0,29,-99.99,,,0.00,313.000000,,2013-02-04 21:52:00,
2013-02-04 16:02:00,15.0,-11.0,-100.00,NNW,329,6.0,11.0,29,-99.99,,,0.00,313.000000,,2013-02-04 22:02:00,
2013-02-04 16:10:00,13.0,-12.0,-100.00,NW,321,3.0,10.0,31,0.00,,,0.00,175.000000,,2013-02-04 22:10:00,
2013-02-04 16:33:00,13.0,-12.0,-100.00,NW,321,3.0,10.0,31,0.00,,,0.00,175.000000,,2013-02-04 22:33:00,
2013-02-04 16:42:00,13.0,-12.0,-100.00,NW,321,3.0,10.0,31,0.00,,,0.00,175.000000,,2013-02-04 22:42:00,
2013-02-04 16:52:00,13.0,-12.0,-100.00,NW,321,3.0,10.0,31,0.00,,,0.00,175.000000,,2013-02-04 22:52:00,
2013-02-04 17:01:00,13.0,-12.0,-100.00,NW,321,3.0,10.0,31,0.00,,,0.00,175.000000,,2013-02-04 23:01:00,
2013-02-04 17:10:00,7.0,-12.0,-100.00,West,278,2.0,6.0,41,0.00,,,0.00,20.000000,,2013-02-04 23:10:00,
2013-02-04 17:32:00,7.0,-12.0,-100.00,West,278,2.0,6.0,41,0.00,,,0.00,20.000000,,2013-02-04 23:32:00,
2013-02-04 17:42:00,7.0,-12.0,-100.00,West,278,2.0,6.0,41,0.00,,,0.00,20.000000,,2013-02-04 23:42:00,
2013-02-04 17:52:00,7.0,-12.0,-100.00,West,278,2.0,6.0,41,0.00,,,0.00,20.000000,,2013-02-04 23:52:00,
2013-02-04 18:01:00,7.0,-12.0,-100.00,West,278,2.0,6.0,41,0.00,,,0.00,20.000000,,2013-02-05 00:01:00,
2013-02-04 18:10:00,1.0,-7.0,-100.00,WSW,253,1.0,2.0,69,0.00,,,0.00,0.000000,,2013-02-05 00:10:00,
2013-02-04 18:42:00,1.0,-7.0,-100.00,WSW,253,1.0,2.0,69,0.00,,,0.00,0.000000,,2013-02-05 00:42:00,
2013-02-04 18:52:00,1.0,-7.0,-100.00,WSW,253,1.0,2.0,69,0.00,,,0.00,0.000000,,2013-02-05 00:52:00,
2013-02-04 19:02:00,1.0,-7.0,-100.00,WSW,253,1.0,2.0,69,0.00,,,0.00,0.000000,,2013-02-05 01:02:00,
2013-02-04 19:10:00,-3.0,-8.0,-100.00,South,186,0.0,2.0,77,0.00,,,0.00,0.000000,,2013-02-05 01:10:00,
2013-02-04 19:42:00,-3.0,-8.0,-100.00,South,186,0.0,2.0,77,0.00,,,0.00,0.000000,,2013-02-05 01:42:00,
2013-02-04 19:52:00,-3.0,-8.0,-100.00,South,186,0.0,2.0,77,0.00,,,0.00,0.000000,,2013-02-05 01:52:00,
2013-02-04 20:01:00,-3.0,-8.0,-100.00,South,186,0.0,2.0,77,0.00,,,0.00,0.000000,,2013-02-05 02:01:00,
2013-02-04 20:10:00,-4.0,-8.0,-100.00,SSE,149,1.0,2.0,81,0.00,,,0.00,0.000000,,2013-02-05 02:10:00,
2013-02-04 20:32:00,-4.0,-8.0,-100.00,SSE,149,1.0,2.0,81,0.00,,,0.00,0.000000,,2013-02-05 02:32:00,
2013-02-04 20:42:00,-4.0,-8.0,-100.00,SSE,149,1.0,2.0,81,0.00,,,0.00,0.000000,,2013-02-05 02:42:00,
2013-02-04 20:52:00,-4.0,-8.0,-100.00,SSE,149,1.0,2.0,81,0.00,,,0.00,0.000000,,2013-02-05 02:52:00,
2013-02-04 21:02:00,-4.0,-8.0,-100.00,SSE,149,1.0,2.0,81,0.00,,,0.00,0.000000,,2013-02-05 03:02:00,
2013-02-04 21:10:00,-5.0,-10.0,-100.00,ENE,57,0.0,2.0,79,0.00,,,0.00,0.000000,,2013-02-05 03:10:00,
2013-02-04 21:32:00,-5.0,-10.0,-100.00,ENE,57,0.0,2.0,79,0.00,,,0.00,0.000000,,2013-02-05 03:32:00,
2013-02-04 21:42:00,-5.0,-10.0,-100.00,ENE,57,0.0,2.0,79,0.00,,,0.00,0.000000,,2013-02-05 03:42:00,
2013-02-04 21:52:00,-5.0,-10.0,-100.00,ENE,57,0.0,2.0,79,0.00,,,0.00,0.000000,,2013-02-05 03:52:00,
2013-02-04 22:01:00,-5.0,-10.0,-100.00,ENE,57,0.0,2.0,79,0.00,,,0.00,0.000000,,2013-02-05 04:01:00,
2013-02-04 22:10:00,-4.0,-8.0,-100.00,SSE,164,2.0,4.0,81,0.00,,,0.00,0.000000,,2013-02-05 04:10:00,
2013-02-04 22:32:00,-4.0,-8.0,-100.00,SSE,164,2.0,4.0,81,0.00,,,0.00,0.000000,,2013-02-05 04:32:00,
2013-02-04 22:42:00,-4.0,-8.0,-100.00,SSE,164,2.0,4.0,81,0.00,,,0.00,0.000000,,2013-02-05 04:42:00,
2013-02-04 22:52:00,-4.0,-8.0,-100.00,SSE,164,2.0,4.0,81,0.00,,,0.00,0.000000,,2013-02-05 04:52:00,
2013-02-04 23:02:00,-4.0,-8.0,-100.00,SSE,164,2.0,4.0,81,0.00,,,0.00,0.000000,,2013-02-05 05:02:00,
2013-02-04 23:10:00,0.0,-5.0,-100.00,South,186,2.0,5.0,79,0.00,,,0.00,0.000000,,2013-02-05 05:10:00,
2013-02-04 23:32:00,0.0,-5.0,-100.00,South,186,2.0,5.0,79,0.00,,,0.00,0.000000,,2013-02-05 05:32:00,
2013-02-04 23:42:00,0.0,-5.0,-100.00,South,186,2.0,5.0,79,0.00,,,0.00,0.000000,,2013-02-05 05:42:00,
2013-02-04 23:52:00,0.0,-5.0,-100.00,South,186,2.0,5.0,79,0.00,,,0.00,0.000000,,2013-02-05 05:52:00,